Date,TemperatureHighF,TemperatureAvgF,TemperatureLowF,DewpointHighF,DewpointAvgF,DewpointLowF,HumidityHigh,HumidityAvg,HumidityLow,PressureMaxIn,PressureMinIn,WindSpeedMaxMPH,WindSpeedAvgMPH,GustSpeedMaxMPH,PrecipitationSumIn
2012-12-1,43.7,39.0,34.5,31.8,29.3,25.8,83,68,57,30.61,30.50,18,5,18,0.03
2012-12-2,55.3,51.1,0.0,47.1,36.4,0.0,76,57,49,30.48,30.09,20,7,22,0.03
2012-12-3,60.4,51.7,42.8,50.3,39.8,28.9,80,64,50,30.31,30.06,23,4,23,0.00
2012-12-4,55.4,49.5,41.8,40.7,32.5,24.6,65,52,43,30.35,30.04,22,4,22,0.01
2012-12-5,57.1,51.4,38.8,48.9,35.5,26.0,80,55,44,30.12,29.89,27,7,27,0.06
2012-12-6,41.8,35.8,30.3,29.8,25.1,21.7,83,65,48,30.33,30.12,20,2,22,0.00
2012-12-7,48.1,43.7,33.2,41.5,36.1,26.9,81,75,48,30.32,30.07,14,1,14,0.04
2012-12-8,54.4,49.7,47.6,31.7,28.6,26.8,48,44,42,30.07,29.84,15,2,15,0.73
2012-12-9,50.7,46.6,43.5,43.6,32.8,24.6,81,60,44,30.29,29.98,15,2,15,0.13
2012-12-10,59.3,53.9,47.0,35.6,32.1,28.7,51,43,41,30.15,29.53,29,10,29,2.48
2012-12-11,54.9,47.3,37.6,43.6,32.8,27.4,84,59,42,30.17,29.56,19,3,19,0.01
2012-12-12,41.3,36.6,33.0,30.3,27.8,25.8,82,70,57,30.45,30.17,16,2,16,0.00
2012-12-13,46.9,38.4,33.7,32.9,30.3,28.7,84,73,52,30.48,30.31,12,1,12,0.00
2012-12-14,47.2,40.9,33.8,39.8,34.0,28.3,84,77,62,30.32,30.09,25,4,25,0.00
2012-12-15,44.0,38.9,35.1,34.2,31.6,28.4,84,75,55,30.35,30.17,15,3,15,0.00
2012-12-16,42.6,38.7,36.5,34.3,29.7,24.7,84,71,50,30.33,30.02,23,7,23,0.38
2012-12-17,48.5,46.1,42.5,28.7,26.7,24.7,50,46,45,30.02,29.75,18,6,18,0.40
2012-12-18,52.9,46.7,44.9,47.3,41.5,27.9,98,85,43,29.75,29.44,19,6,23,0.40
2012-12-19,46.9,42.7,38.3,42.6,34.0,30.2,92,72,60,30.04,29.47,33,9,33,0.00
2012-12-20,42.7,38.1,33.4,36.9,32.7,29.3,90,81,72,30.22,30.04,17,4,20,0.00
2012-12-21,53.5,44.9,39.3,52.4,41.6,31.2,97,88,71,30.07,29.15,40,11,40,0.52
2012-12-22,40.3,36.6,31.6,35.1,26.7,18.4,90,68,54,29.69,29.30,29,10,32,0.00
2012-12-23,40.6,35.8,32.7,28.4,23.6,19.6,72,61,51,29.92,29.69,33,8,33,0.00
2012-12-24,40.7,35.7,32.7,30.8,24.7,21.9,84,64,49,30.10,29.92,18,3,18,0.00
2012-12-25,36.9,34.3,28.9,36.5,32.1,23.2,100,92,79,30.24,29.98,16,4,17,0.17
2012-12-26,38.0,32.7,25.4,36.2,27.2,19.2,94,80,70,30.32,29.84,29,6,29,0.23
2012-12-27,51.7,42.2,31.8,49.5,40.3,29.0,98,93,87,29.86,29.22,40,12,45,0.52
2012-12-28,37.2,32.7,28.3,30.7,24.8,21.4,94,73,59,30.05,29.62,28,6,30,0.00
2012-12-29,38.1,32.6,28.4,36.8,29.2,24.6,97,87,77,30.05,29.30,27,4,27,0.93
2012-12-30,32.3,28.8,22.9,31.5,24.6,13.9,97,84,69,30.03,29.37,34,8,34,0.20
2012-12-31,36.1,29.6,22.1,29.4,21.8,13.6,78,72,67,30.11,29.83,28,9,28,0.01